User: anonymous
Location: Unspecified
(0.0000°N, 0.0000°E)
Time: 19:34:50
(UTC+02:00)
Language:

Hamsat - Orbit

View from above orbital plane
View from above orbital plane
View from above satellite
View from above satellite

Ground track
Ground track

The orbit data is extracted from the following two-line orbital elements,

1 28650U 05017B   14211.46389463  .00000946  00000-0  11462-3 0  8047
2 28650 097.5613 214.2698 0025094 019.1916 341.0240 14.85610527499659
Epoch (UTC): 30 July 2014 11:08:00
Eccentricity: 0.0025094
inclination: 97.5613°
perigee height: 594 km
apogee height: 629 km
right ascension of ascending node: 214.2698°
argument of perigee: 19.1916°
revolutions per day: 14.85610527
mean anomaly at epoch: 341.0240°
orbit number at epoch: 49965

The dashed part of the orbit path shows where the satellite is in the earth's shadow,  

DLR